Flag for U.S.A. Weather past 2 weeks in Rancho Cucamonga, California, U.S.A.

Now
67 °F

Overcast.


Feels Like: 67 °F
Forecast: 63 / 86 °F
Wind: No wind

Location: Ontario International Airport

Current Time: Jul 5, 2015 at 10:36:38 AM

Latest Report: Jul 5, 2015 at 9:53 AM


Visibility: 4 mi

Pressure: 29.96 "Hg

Humidity: 76%

Dew point: 59 °F

Location of Rancho CucamongaLocation

Historic Weather in Rancho Cucamonga — Graph

°F

Rancho Cucamonga temperature yesterday

Maximum temperature yesterday: 87 °F (at 2:53 PM)
Minimum temperature yesterday: 63 °F (at 4:53 AM)
Average temperature yesterday: 73 °F

Past Weeks' High & Low Weather Summary

 TemperatureHumidityPressure
High102 °F (Jun 28, 3:53 PM)86% (Jul 5, 3:53 AM)29.98 "Hg (Jul 5, 3:53 AM)
Low62 °F (Jul 5, 3:53 AM)12% (Jun 22, 3:53 PM)29.76 "Hg (Jun 20, 4:53 PM)
Average79 °F48%29.86 "Hg
* Reported Jun 20 8:53 AM — Jul 5 8:53 AM, Rancho Cucamonga, Weather by CustomWeather, © 2015

Note: Actual official high and low records may vary slightly from our data, if they occured in-between our weather recording intervals... More about our weather records

Advertising

Rancho Cucamonga weather history for previous 24 hours

 ConditionsComfort  
Time TempWeatherWind HumidityBarometerVisibility
8:53 AM
Sun, Jul 5
66 °FOvercast.3 mph75%29.96 "Hg4 mi
8:04 AM66 °FOvercast.3 mph75%29.98 "Hg3 mi
8:00 AM65 °FOvercast.3 mph78%29.98 "Hg2 mi
6:53 AM64 °FOvercast.3 mph81%29.93 "Hg3 mi
5:53 AM63 °FFog.7 mph84%29.91 "Hg2 mi
4:53 AM63 °FFog.7 mph84%29.90 "Hg2 mi
3:53 AM62 °FFog.6 mph86%29.89 "Hg2 mi
2:53 AM63 °FClear.6 mph84%29.89 "Hg2 mi
1:53 AM64 °FClear.6 mph81%29.89 "Hg2 mi
12:53 AM65 °FClear.5 mph78%29.90 "Hg4 mi
11:53 PM
Sat, Jul 4
65 °FClear.6 mph78%29.90 "Hg6 mi
10:53 PM66 °FClear.8 mph75%29.90 "Hg7 mi
9:53 PM67 °FClear.9 mph73%29.89 "Hg8 mi
8:53 PM70 °FPassing clouds.12 mph66%29.86 "Hg10 mi
7:53 PM74 °FPassing clouds.12 mph57%29.83 "Hg10 mi
6:53 PM80 °FPassing clouds.10 mph45%29.80 "Hg10 mi
5:53 PM82 °FPassing clouds.9 mph44%29.79 "Hg10 mi
4:53 PM84 °FPassing clouds.15 mph40%29.80 "Hg10 mi
3:53 PM86 °FPassing clouds.15 mph36%29.81 "Hg10 mi
2:53 PM87 °FScattered clouds.16 mph35%29.82 "Hg10 mi
1:53 PM85 °FScattered clouds.12 mph37%29.83 "Hg10 mi
12:53 PM82 °FPassing clouds.10 mph44%29.84 "Hg10 mi
11:53 AM81 °FPassing clouds.8 mph45%29.85 "Hg10 mi
10:53 AM79 °FPassing clouds.6 mph47%29.84 "Hg10 mi
Weather by CustomWeather, © 2015

See weather overviewHow to use our weather pages